TimeCDT,TemperatureF,Dew PointF,Humidity,Sea Level PressureIn,VisibilityMPH,Wind Direction,Wind SpeedMPH,Gust SpeedMPH,PrecipitationIn,Events,Conditions,WindDirDegrees,DateUTC
12:12 AM,55.8,40.1,56,29.74,10.0,SSE,5.8,-,N/A,,Clear,160,2012-10-16 05:12:00
12:32 AM,55.8,40.3,56,29.73,10.0,SSE,6.9,-,N/A,,Clear,150,2012-10-16 05:32:00
12:52 AM,56.1,40.5,56,29.73,10.0,SSE,9.2,-,N/A,,Clear,160,2012-10-16 05:52:00
1:12 AM,56.5,40.1,54,29.72,10.0,SSE,9.2,-,N/A,,Clear,160,2012-10-16 06:12:00
1:32 AM,56.7,40.3,54,29.71,10.0,South,9.2,-,N/A,,Scattered Clouds,170,2012-10-16 06:32:00
1:52 AM,57.2,40.1,53,29.70,10.0,SSE,9.2,-,N/A,,Clear,160,2012-10-16 06:52:00
2:12 AM,57.4,40.1,53,29.70,10.0,SSE,12.7,16.1,N/A,,Scattered Clouds,160,2012-10-16 07:12:00
2:32 AM,57.7,40.1,52,29.70,10.0,South,11.5,21.9,N/A,,Scattered Clouds,180,2012-10-16 07:32:00
2:52 AM,57.7,40.1,52,29.68,10.0,South,11.5,18.4,N/A,,Scattered Clouds,170,2012-10-16 07:52:00
3:12 AM,57.6,40.1,52,29.68,10.0,South,8.1,-,N/A,,Scattered Clouds,170,2012-10-16 08:12:00
3:32 AM,57.4,40.3,53,29.67,10.0,SSE,5.8,-,N/A,,Scattered Clouds,160,2012-10-16 08:32:00
3:52 AM,57.2,40.6,54,29.67,10.0,South,5.8,-,N/A,,Mostly Cloudy,170,2012-10-16 08:52:00
4:12 AM,57.2,40.8,54,29.66,10.0,SSE,5.8,-,N/A,,Overcast,160,2012-10-16 09:12:00
4:32 AM,56.8,41.0,55,29.65,10.0,SSE,8.1,-,N/A,,Overcast,150,2012-10-16 09:32:00
4:52 AM,56.8,41.2,56,29.64,10.0,SSE,9.2,-,N/A,,Scattered Clouds,150,2012-10-16 09:52:00
5:32 AM,56.5,41.9,58,29.63,10.0,SSE,6.9,-,N/A,,Clear,160,2012-10-16 10:32:00
5:52 AM,56.3,41.9,59,29.63,10.0,South,4.6,-,N/A,,Clear,170,2012-10-16 10:52:00
6:12 AM,55.8,42.1,60,29.64,10.0,Calm,Calm,-,N/A,,Clear,0,2012-10-16 11:12:00
6:32 AM,55.6,42.3,61,29.62,10.0,SSE,3.5,-,N/A,,Clear,150,2012-10-16 11:32:00
7:12 AM,54.7,42.3,63,29.61,10.0,Calm,Calm,-,N/A,,Clear,0,2012-10-16 12:12:00
7:32 AM,53.2,42.1,66,29.61,10.0,Calm,Calm,-,N/A,,Scattered Clouds,0,2012-10-16 12:32:00
7:52 AM,53.8,42.4,65,29.60,10.0,SE,3.5,-,N/A,,Scattered Clouds,140,2012-10-16 12:52:00
8:12 AM,54.5,42.6,64,29.60,10.0,Calm,Calm,-,N/A,,Clear,0,2012-10-16 13:12:00
8:32 AM,54.7,42.8,64,29.60,10.0,SSE,5.8,-,N/A,,Clear,160,2012-10-16 13:32:00
8:52 AM,55.0,42.8,63,29.59,10.0,SSE,5.8,-,N/A,,Scattered Clouds,150,2012-10-16 13:52:00
9:12 AM,55.9,43.0,62,29.58,10.0,SSE,6.9,-,N/A,Thunderstorm,Mostly Cloudy,150,2012-10-16 14:12:00
9:32 AM,56.3,43.0,61,29.57,10.0,SSE,8.1,-,N/A,,Mostly Cloudy,150,2012-10-16 14:32:00
9:52 AM,56.3,43.7,63,29.56,10.0,SE,6.9,-,N/A,,Scattered Clouds,140,2012-10-16 14:52:00
10:12 AM,56.3,44.2,64,29.55,10.0,SE,6.9,-,N/A,,Clear,140,2012-10-16 15:12:00
10:32 AM,56.3,44.2,64,29.56,10.0,South,10.4,-,N/A,,Clear,190,2012-10-16 15:32:00
10:52 AM,56.8,44.8,64,29.57,10.0,South,10.4,16.1,N/A,,Clear,190,2012-10-16 15:52:00
11:12 AM,56.5,45.0,65,29.55,10.0,SE,3.5,-,N/A,,Scattered Clouds,130,2012-10-16 16:12:00
11:32 AM,56.5,45.1,66,29.55,10.0,Calm,Calm,-,N/A,,Clear,0,2012-10-16 16:32:00
11:52 AM,59.0,45.5,61,29.55,10.0,Calm,Calm,-,N/A,,Clear,0,2012-10-16 16:52:00
12:12 PM,59.4,45.9,61,29.54,10.0,Calm,Calm,-,N/A,,Clear,0,2012-10-16 17:12:00
12:32 PM,59.2,45.9,61,29.52,10.0,SE,6.9,-,N/A,,Clear,140,2012-10-16 17:32:00
12:52 PM,58.6,46.0,63,29.50,10.0,SSE,5.8,-,N/A,,Clear,160,2012-10-16 17:52:00
1:12 PM,59.5,46.4,62,29.50,10.0,South,6.9,-,N/A,,Clear,170,2012-10-16 18:12:00
1:32 PM,59.0,47.1,65,29.48,10.0,SE,9.2,-,N/A,,Clear,140,2012-10-16 18:32:00
1:52 PM,59.2,47.7,66,29.47,10.0,SSE,8.1,-,N/A,,Clear,160,2012-10-16 18:52:00
2:12 PM,59.2,48.0,66,29.46,10.0,SSE,4.6,-,N/A,,Clear,160,2012-10-16 19:12:00
2:32 PM,61.3,48.2,62,29.45,10.0,SSE,8.1,-,N/A,,Clear,160,2012-10-16 19:32:00
2:52 PM,63.7,48.0,57,29.44,10.0,SSE,6.9,-,N/A,,Clear,160,2012-10-16 19:52:00
3:12 PM,63.7,47.5,56,29.45,10.0,SSE,6.9,-,N/A,,Clear,160,2012-10-16 20:12:00
3:32 PM,63.3,48.2,58,29.46,10.0,SE,4.6,-,N/A,,Clear,130,2012-10-16 20:32:00
3:52 PM,63.5,48.6,58,29.44,10.0,SSE,9.2,-,N/A,,Clear,150,2012-10-16 20:52:00
4:12 PM,62.8,48.6,60,29.45,10.0,SE,3.5,-,N/A,,Clear,140,2012-10-16 21:12:00
4:32 PM,63.5,48.7,59,29.45,10.0,SSE,4.6,-,N/A,,Clear,160,2012-10-16 21:32:00
4:52 PM,62.8,49.1,61,29.44,10.0,SE,5.8,-,N/A,,Clear,140,2012-10-16 21:52:00
5:12 PM,63.0,49.1,61,29.45,10.0,SSE,3.5,-,N/A,,Clear,150,2012-10-16 22:12:00
5:32 PM,62.6,49.1,61,29.44,10.0,East,3.5,-,N/A,,Clear,100,2012-10-16 22:32:00
5:52 PM,62.1,48.7,62,29.42,10.0,Calm,Calm,-,N/A,,Clear,0,2012-10-16 22:52:00
6:12 PM,61.7,48.7,62,29.42,10.0,East,4.6,-,N/A,,Clear,100,2012-10-16 23:12:00
6:32 PM,60.8,48.6,64,29.42,10.0,Calm,Calm,-,N/A,,Clear,0,2012-10-16 23:32:00
6:52 PM,59.7,48.4,66,29.42,10.0,Calm,Calm,-,N/A,,Clear,0,2012-10-16 23:52:00
7:12 PM,57.9,48.0,70,29.43,10.0,NNW,3.5,-,N/A,,Scattered Clouds,340,2012-10-17 00:12:00
7:32 PM,59.0,48.4,68,29.41,10.0,ENE,5.8,-,N/A,,Scattered Clouds,70,2012-10-17 00:32:00
7:52 PM,58.1,48.4,70,29.42,5.0,Calm,Calm,-,N/A,,Haze,0,2012-10-17 00:52:00
8:12 PM,57.6,48.0,70,29.42,10.0,Calm,Calm,-,N/A,,Clear,0,2012-10-17 01:12:00
8:32 PM,57.7,48.2,70,29.40,10.0,Calm,Calm,-,N/A,,Clear,0,2012-10-17 01:32:00
8:52 PM,54.5,47.1,76,29.40,10.0,Calm,Calm,-,N/A,,Clear,0,2012-10-17 01:52:00
9:12 PM,52.2,46.0,80,29.41,10.0,Calm,Calm,-,N/A,,Clear,0,2012-10-17 02:12:00
9:32 PM,53.6,47.3,79,29.40,10.0,Calm,Calm,-,N/A,,Clear,0,2012-10-17 02:32:00
9:52 PM,51.8,46.8,83,29.40,10.0,Calm,Calm,-,N/A,,Clear,0,2012-10-17 02:52:00
10:32 PM,50.5,46.4,86,29.40,10.0,Calm,Calm,-,N/A,,Clear,0,2012-10-17 03:32:00
10:52 PM,50.9,46.2,84,29.39,10.0,Calm,Calm,-,N/A,,Clear,0,2012-10-17 03:52:00
11:12 PM,50.0,45.9,86,29.39,10.0,Calm,Calm,-,N/A,,Clear,0,2012-10-17 04:12:00
11:32 PM,49.5,45.1,85,29.37,10.0,Calm,Calm,-,N/A,,Clear,0,2012-10-17 04:32:00
11:52 PM,48.6,45.7,90,29.38,10.0,Calm,Calm,-,N/A,,Clear,0,2012-10-17 04:52:00